Location: Sabana Grande
(18.0777°N, 66.9605°W)
Time: 00:23:56
(UTC-04:00)

Hubble Space Telescope - Visible Passes

Search period start: 18 September 2024 00:00
Search period end: 28 September 2024 00:00
Orbit: 505 x 509 km, 28.5° (Epoch: 17 September)

Date Brightness Start Highest point End Pass type
(mag) Time Alt. Az. Time Alt. Az. Time Alt. Az.
21 Sep 2.2 05:43:48 10° SW 05:47:19 32° SSE 05:50:50 10° E visible
22 Sep 1.8 05:23:10 12° SW 05:26:25 37° SSE 05:30:04 10° E visible
23 Sep 1.5 05:03:50 27° SSW 05:05:30 43° SSE 05:09:14 10° E visible
24 Sep 1.1 04:44:26 51° SSE 04:44:33 51° SSE 04:48:22 10° ENE visible
25 Sep 2.1 04:24:57 35° E 04:24:57 35° E 04:27:26 10° ENE visible
26 Sep 3.4 04:05:22 18° ENE 04:05:22 18° ENE 04:06:29 10° ENE visible
26 Sep 1.8 05:40:04 12° WNW 05:43:08 30° NNW 05:46:39 10° NE visible
27 Sep 1.9 05:20:24 20° WNW 05:22:10 28° NNW 05:25:35 10° NE visible
